Time,TemperatureF,DewpointF,PressureIn,WindDirection,WindDirectionDegrees,WindSpeedMPH,WindSpeedGustMPH,Humidity,HourlyPrecipIn,Conditions,Clouds,dailyrainin,SolarRadiationWatts/m^2,SoftwareType,DateUTC
2013-05-20 00:13:00,71.0,68.9,29.09,SE,135,0.0,3.0,93,0.00,,---,0.00,0.00,VWS V14.01,2013-05-20 04:13:00,
2013-05-20 00:18:00,71.0,68.9,29.09,SSE,157,0.0,0.0,93,0.00,,---,0.00,0.00,VWS V14.01,2013-05-20 04:18:00,
2013-05-20 00:23:00,71.0,68.9,29.09,SSE,157,0.0,1.0,93,0.00,,---,0.00,0.00,VWS V14.01,2013-05-20 04:23:00,
2013-05-20 00:28:00,71.0,68.6,29.09,SSE,157,0.0,2.0,92,0.00,,---,0.00,0.00,VWS V14.01,2013-05-20 04:28:00,
2013-05-20 00:33:00,71.0,68.6,29.09,South,180,3.0,4.0,92,0.00,,---,0.00,0.00,VWS V14.01,2013-05-20 04:33:00,
2013-05-20 00:38:00,71.0,68.6,29.09,SSE,157,0.0,0.0,92,0.00,,---,0.00,0.00,VWS V14.01,2013-05-20 04:38:00,
2013-05-20 00:43:00,71.0,68.6,29.09,SSE,157,1.0,2.0,92,0.00,,---,0.00,0.00,VWS V14.01,2013-05-20 04:43:00,
2013-05-20 00:48:00,71.0,68.6,29.09,South,180,0.0,0.0,92,0.00,,---,0.00,0.00,VWS V14.01,2013-05-20 04:48:00,
2013-05-20 00:53:00,71.0,68.6,29.09,SSE,157,0.0,0.0,92,0.00,,---,0.00,0.00,VWS V14.01,2013-05-20 04:53:00,
2013-05-20 00:58:00,71.0,68.6,29.09,South,180,0.0,1.0,92,0.00,,---,0.00,0.00,VWS V14.01,2013-05-20 04:58:00,
2013-05-20 01:03:00,71.0,68.6,29.09,SSW,202,2.0,3.0,92,0.00,,---,0.00,0.00,VWS V14.01,2013-05-20 05:03:00,
2013-05-20 01:08:00,71.0,68.6,29.09,South,180,3.0,3.0,92,0.00,,---,0.00,0.00,VWS V14.01,2013-05-20 05:08:00,
2013-05-20 01:13:00,72.0,69.2,29.08,SE,135,2.0,4.0,91,0.00,,---,0.00,0.00,VWS V14.01,2013-05-20 05:13:00,
2013-05-20 01:18:00,72.0,69.2,29.08,SSE,157,3.0,3.0,91,0.00,,---,0.00,0.00,VWS V14.01,2013-05-20 05:18:00,
2013-05-20 01:23:00,72.0,69.6,29.08,SSW,202,0.0,3.0,92,0.00,,---,0.00,0.00,VWS V14.01,2013-05-20 05:23:00,
2013-05-20 01:28:00,72.0,69.6,29.08,SSE,157,2.0,3.0,92,0.00,,---,0.00,0.00,VWS V14.01,2013-05-20 05:28:00,
2013-05-20 01:33:00,72.0,69.6,29.08,SSE,157,0.0,0.0,92,0.00,,---,0.00,0.00,VWS V14.01,2013-05-20 05:33:00,
2013-05-20 01:38:00,72.0,69.9,29.08,SE,135,3.0,3.0,93,0.00,,---,0.00,0.00,VWS V14.01,2013-05-20 05:38:00,
2013-05-20 01:43:00,72.0,69.9,29.09,SSE,157,1.0,4.0,93,0.00,,---,0.00,0.00,VWS V14.01,2013-05-20 05:43:00,
2013-05-20 01:48:00,72.0,70.2,29.09,SSE,157,0.0,3.0,94,0.00,,---,0.00,0.00,VWS V14.01,2013-05-20 05:48:00,
2013-05-20 01:53:00,71.0,69.2,29.09,SSE,157,0.0,3.0,94,0.00,,---,0.00,0.00,VWS V14.01,2013-05-20 05:53:00,
2013-05-20 01:58:00,71.0,69.5,29.09,SSE,157,0.0,4.0,95,0.00,,---,0.00,0.00,VWS V14.01,2013-05-20 05:58:00,
2013-05-20 02:03:00,71.0,69.5,29.10,South,180,0.0,0.0,95,0.00,,---,0.00,0.00,VWS V14.01,2013-05-20 06:03:00,
2013-05-20 02:08:00,71.0,69.8,29.10,SSE,157,0.0,0.0,96,0.00,,---,0.00,0.00,VWS V14.01,2013-05-20 06:08:00,
2013-05-20 02:13:00,71.0,69.8,29.09,SE,135,0.0,0.0,96,0.00,,---,0.00,0.00,VWS V14.01,2013-05-20 06:13:00,
2013-05-20 02:18:00,71.0,70.1,29.09,SE,135,2.0,2.0,97,0.00,,---,0.00,0.00,VWS V14.01,2013-05-20 06:18:00,
2013-05-20 02:23:00,71.0,70.1,29.09,SSE,157,0.0,0.0,97,0.00,,---,0.00,0.00,VWS V14.01,2013-05-20 06:23:00,
2013-05-20 02:28:00,71.0,70.1,29.09,SSE,157,0.0,0.0,97,0.00,,---,0.00,0.00,VWS V14.01,2013-05-20 06:28:00,
2013-05-20 02:33:00,71.0,70.7,29.09,SE,135,0.0,0.0,99,0.00,,---,0.00,0.00,VWS V14.01,2013-05-20 06:33:00,
2013-05-20 02:38:00,70.0,70.0,29.09,SE,135,0.0,0.0,100,0.00,,---,0.00,0.00,VWS V14.01,2013-05-20 06:38:00,
2013-05-20 02:43:00,70.0,70.0,29.09,SE,135,0.0,0.0,100,0.00,,---,0.00,0.00,VWS V14.01,2013-05-20 06:43:00,
2013-05-20 02:48:00,69.0,69.0,29.09,SE,135,0.0,0.0,100,0.00,,---,0.00,0.00,VWS V14.01,2013-05-20 06:48:00,
2013-05-20 02:53:00,69.0,69.0,29.09,SE,135,0.0,0.0,100,0.00,,---,0.00,0.00,VWS V14.01,2013-05-20 06:53:00,
2013-05-20 02:58:00,68.0,68.0,29.09,SE,135,0.0,0.0,100,0.00,,---,0.00,0.00,VWS V14.01,2013-05-20 06:58:00,
2013-05-20 03:03:00,68.0,68.0,29.09,SE,135,0.0,0.0,100,0.00,,---,0.00,0.00,VWS V14.01,2013-05-20 07:03:00,
2013-05-20 03:08:00,67.0,67.0,29.09,SE,135,0.0,0.0,100,0.00,,---,0.00,0.00,VWS V14.01,2013-05-20 07:08:00,
2013-05-20 03:13:00,67.0,67.0,29.09,SE,135,0.0,0.0,100,0.00,,---,0.00,0.00,VWS V14.01,2013-05-20 07:13:00,
2013-05-20 03:18:00,67.0,67.0,29.09,SSE,157,0.0,0.0,100,0.00,,---,0.00,0.00,VWS V14.01,2013-05-20 07:18:00,
2013-05-20 03:23:00,67.0,67.0,29.09,SSE,157,0.0,0.0,100,0.00,,---,0.00,0.00,VWS V14.01,2013-05-20 07:23:00,
2013-05-20 03:28:00,67.0,67.0,29.09,SSW,202,0.0,0.0,100,0.00,,---,0.00,0.00,VWS V14.01,2013-05-20 07:28:00,
2013-05-20 03:33:00,68.0,68.0,29.09,South,180,0.0,0.0,100,0.00,,---,0.00,0.00,VWS V14.01,2013-05-20 07:33:00,
2013-05-20 03:38:00,68.0,68.0,29.09,SSE,157,0.0,0.0,100,0.00,,---,0.00,0.00,VWS V14.01,2013-05-20 07:38:00,
2013-05-20 03:43:00,68.0,68.0,29.10,SSE,157,0.0,0.0,100,0.00,,---,0.00,0.00,VWS V14.01,2013-05-20 07:43:00,
2013-05-20 03:48:00,68.0,68.0,29.10,SSE,157,0.0,0.0,100,0.00,,---,0.00,0.00,VWS V14.01,2013-05-20 07:48:00,
2013-05-20 03:53:00,68.0,67.4,29.09,ESE,112,1.0,3.0,98,0.00,,---,0.00,0.00,VWS V14.01,2013-05-20 07:53:00,
2013-05-20 03:58:00,68.0,67.1,29.09,SSE,157,0.0,0.0,97,0.00,,---,0.00,0.00,VWS V14.01,2013-05-20 07:58:00,
2013-05-20 04:04:00,68.0,66.5,29.09,SSE,157,0.0,0.0,95,0.00,,---,0.00,0.00,VWS V14.01,2013-05-20 08:04:00,
2013-05-20 04:09:00,68.0,66.5,29.09,SSE,157,0.0,0.0,95,0.00,,---,0.00,0.00,VWS V14.01,2013-05-20 08:09:00,
2013-05-20 04:14:00,68.0,66.5,29.09,SSE,157,0.0,0.0,95,0.00,,---,0.00,0.00,VWS V14.01,2013-05-20 08:14:00,
2013-05-20 04:19:00,69.0,66.9,29.09,SE,135,0.0,0.0,93,0.00,,---,0.00,0.00,VWS V14.01,2013-05-20 08:19:00,
2013-05-20 04:25:00,68.0,66.5,29.09,SE,135,0.0,0.0,95,0.00,,---,0.00,0.00,VWS V14.01,2013-05-20 08:25:00,
2013-05-20 04:30:00,68.0,66.5,29.09,South,180,0.0,2.0,95,0.00,,---,0.00,0.00,VWS V14.01,2013-05-20 08:30:00,
2013-05-20 04:35:00,68.0,66.5,29.09,SSE,157,0.0,0.0,95,0.00,,---,0.00,0.00,VWS V14.01,2013-05-20 08:35:00,
2013-05-20 04:40:00,68.0,65.9,29.09,SSE,157,0.0,0.0,93,0.00,,---,0.00,0.00,VWS V14.01,2013-05-20 08:40:00,
2013-05-20 04:45:00,69.0,66.9,29.08,South,180,0.0,0.0,93,0.00,,---,0.00,0.00,VWS V14.01,2013-05-20 08:45:00,
2013-05-20 04:50:00,69.0,66.6,29.08,SSE,157,0.0,0.0,92,0.00,,---,0.00,0.00,VWS V14.01,2013-05-20 08:50:00,
2013-05-20 04:55:00,69.0,67.5,29.08,South,180,2.0,3.0,95,0.00,,---,0.00,0.00,VWS V14.01,2013-05-20 08:55:00,
2013-05-20 05:00:00,69.0,66.6,29.08,SE,135,0.0,3.0,92,0.00,,---,0.00,0.00,VWS V14.01,2013-05-20 09:00:00,
2013-05-20 05:05:00,69.0,66.3,29.08,SE,135,1.0,4.0,91,0.00,,---,0.00,0.00,VWS V14.01,2013-05-20 09:05:00,
2013-05-20 05:10:00,69.0,66.9,29.08,SSE,157,3.0,4.0,93,0.00,,---,0.00,0.00,VWS V14.01,2013-05-20 09:10:00,
2013-05-20 05:15:00,69.0,66.6,29.07,SSE,157,2.0,3.0,92,0.00,,---,0.00,0.00,VWS V14.01,2013-05-20 09:15:00,
2013-05-20 05:20:00,69.0,66.3,29.07,SE,135,3.0,3.0,91,0.00,,---,0.00,0.00,VWS V14.01,2013-05-20 09:20:00,
2013-05-20 05:25:00,69.0,66.3,29.07,SSE,157,0.0,3.0,91,0.00,,---,0.00,0.00,VWS V14.01,2013-05-20 09:25:00,
2013-05-20 05:30:00,69.0,66.3,29.07,SE,135,3.0,3.0,91,0.00,,---,0.00,0.00,VWS V14.01,2013-05-20 09:30:00,
2013-05-20 05:35:00,69.0,66.3,29.07,South,180,4.0,4.0,91,0.00,,---,0.00,0.00,VWS V14.01,2013-05-20 09:35:00,
2013-05-20 05:40:00,69.0,66.3,29.07,SSE,157,1.0,4.0,91,0.00,,---,0.00,0.00,VWS V14.01,2013-05-20 09:40:00,
2013-05-20 05:45:00,69.0,66.3,29.07,SSE,157,2.0,3.0,91,0.00,,---,0.00,0.00,VWS V14.01,2013-05-20 09:45:00,
2013-05-20 05:50:00,69.0,66.3,29.07,SSE,157,0.0,3.0,91,0.00,,---,0.00,0.00,VWS V14.01,2013-05-20 09:50:00,
2013-05-20 05:55:00,69.0,66.3,29.07,SSE,157,2.0,3.0,91,0.00,,---,0.00,0.00,VWS V14.01,2013-05-20 09:55:00,
2013-05-20 06:00:00,69.0,65.9,29.07,SSW,202,2.0,5.0,90,0.00,,---,0.00,0.00,VWS V14.01,2013-05-20 10:00:00,
2013-05-20 06:05:00,69.0,65.9,29.08,South,180,0.0,4.0,90,0.00,,---,0.00,0.00,VWS V14.01,2013-05-20 10:05:00,
2013-05-20 06:10:00,69.0,65.9,29.08,SW,225,3.0,3.0,90,0.00,,---,0.00,0.00,VWS V14.01,2013-05-20 10:10:00,
2013-05-20 06:15:00,70.0,67.3,29.08,NNW,337,0.0,3.0,91,0.00,,---,0.00,0.00,VWS V14.01,2013-05-20 10:15:00,
2013-05-20 06:20:00,70.0,67.3,29.08,SSW,202,3.0,5.0,91,0.00,,---,0.00,0.00,VWS V14.01,2013-05-20 10:20:00,
2013-05-20 06:25:00,70.0,67.6,29.09,SE,135,0.0,4.0,92,0.00,,---,0.00,0.00,VWS V14.01,2013-05-20 10:25:00,
2013-05-20 06:30:00,70.0,67.6,29.09,SSE,157,0.0,0.0,92,0.00,,---,0.00,0.00,VWS V14.01,2013-05-20 10:30:00,
2013-05-20 06:35:00,70.0,67.6,29.08,South,180,1.0,4.0,92,0.00,,---,0.00,0.00,VWS V14.01,2013-05-20 10:35:00,
2013-05-20 06:40:00,70.0,67.6,29.08,SSW,202,1.0,3.0,92,0.00,,---,0.00,0.00,VWS V14.01,2013-05-20 10:40:00,
2013-05-20 06:45:00,70.0,67.9,29.10,South,180,3.0,5.0,93,0.00,,---,0.00,0.00,VWS V14.01,2013-05-20 10:45:00,
2013-05-20 06:50:00,70.0,68.2,29.10,South,180,5.0,7.0,94,0.00,,---,0.00,0.00,VWS V14.01,2013-05-20 10:50:00,
2013-05-20 06:55:00,70.0,68.8,29.11,SW,225,0.0,4.0,96,0.00,,---,0.00,0.00,VWS V14.01,2013-05-20 10:55:00,
2013-05-20 07:00:00,70.0,69.1,29.11,SSE,157,1.0,4.0,97,0.00,,---,0.00,0.00,VWS V14.01,2013-05-20 11:00:00,
2013-05-20 07:05:00,70.0,68.8,29.11,South,180,0.0,0.0,96,0.00,,---,0.00,0.00,VWS V14.01,2013-05-20 11:05:00,
2013-05-20 07:10:00,70.0,68.8,29.11,South,180,3.0,3.0,96,0.00,,---,0.00,0.00,VWS V14.01,2013-05-20 11:10:00,
2013-05-20 07:15:00,70.0,68.8,29.12,SSW,202,0.0,3.0,96,0.00,,---,0.00,0.00,VWS V14.01,2013-05-20 11:15:00,
2013-05-20 07:20:00,70.0,69.1,29.12,South,180,3.0,3.0,97,0.00,,---,0.00,0.00,VWS V14.01,2013-05-20 11:20:00,
2013-05-20 07:25:00,70.0,69.1,29.12,SW,225,2.0,2.0,97,0.00,,---,0.00,0.00,VWS V14.01,2013-05-20 11:25:00,
2013-05-20 07:30:00,70.0,69.7,29.12,South,180,0.0,1.0,99,0.00,,---,0.00,0.00,VWS V14.01,2013-05-20 11:30:00,
2013-05-20 07:35:00,71.0,71.0,29.13,South,180,0.0,6.0,100,0.00,,---,0.00,0.00,VWS V14.01,2013-05-20 11:35:00,
2013-05-20 07:40:00,71.0,71.0,29.13,SE,135,3.0,5.0,100,0.00,,---,0.00,0.00,VWS V14.01,2013-05-20 11:40:00,
2013-05-20 07:45:00,71.0,71.0,29.13,South,180,0.0,7.0,100,0.00,,---,0.00,0.00,VWS V14.01,2013-05-20 11:45:00,
2013-05-20 07:50:00,71.0,71.0,29.13,SSE,157,3.0,4.0,100,0.00,,---,0.00,0.00,VWS V14.01,2013-05-20 11:50:00,
2013-05-20 07:55:00,71.0,71.0,29.13,SSW,202,0.0,2.0,100,0.00,,---,0.00,0.00,VWS V14.01,2013-05-20 11:55:00,
2013-05-20 08:00:00,71.0,71.0,29.13,South,180,3.0,3.0,100,0.00,,---,0.00,0.00,VWS V14.01,2013-05-20 12:00:00,
2013-05-20 08:05:00,71.0,71.0,29.13,WSW,247,0.0,6.0,100,0.00,,---,0.00,0.00,VWS V14.01,2013-05-20 12:05:00,
2013-05-20 08:10:00,71.0,71.0,29.13,SSW,202,8.0,8.0,100,0.00,,---,0.00,0.00,VWS V14.01,2013-05-20 12:10:00,
2013-05-20 08:15:00,71.0,71.0,29.13,SW,225,4.0,5.0,100,0.00,,---,0.00,0.00,VWS V14.01,2013-05-20 12:15:00,
2013-05-20 08:20:00,71.0,71.0,29.13,SSE,157,4.0,5.0,100,0.00,,---,0.00,0.00,VWS V14.01,2013-05-20 12:20:00,
2013-05-20 08:25:00,71.0,71.0,29.13,SSE,157,0.0,4.0,100,0.00,,---,0.00,0.00,VWS V14.01,2013-05-20 12:25:00,
2013-05-20 08:30:00,71.0,71.0,29.13,SSE,157,0.0,0.0,100,0.00,,---,0.00,0.00,VWS V14.01,2013-05-20 12:30:00,
2013-05-20 08:35:00,72.0,72.0,29.13,SSE,157,3.0,5.0,100,0.00,,---,0.00,0.00,VWS V14.01,2013-05-20 12:35:00,
2013-05-20 08:40:00,72.0,72.0,29.13,SSE,157,0.0,4.0,100,0.00,,---,0.00,0.00,VWS V14.01,2013-05-20 12:40:00,
2013-05-20 08:45:00,73.0,73.0,29.12,SSW,202,3.0,5.0,100,0.00,,---,0.00,0.00,VWS V14.01,2013-05-20 12:45:00,
2013-05-20 08:50:00,73.0,73.0,29.12,SW,225,3.0,3.0,100,0.00,,---,0.00,0.00,VWS V14.01,2013-05-20 12:50:00,
2013-05-20 08:55:00,73.0,73.0,29.13,SSE,157,3.0,5.0,100,0.00,,---,0.00,0.00,VWS V14.01,2013-05-20 12:55:00,
2013-05-20 09:00:00,73.0,73.0,29.13,South,180,0.0,2.0,100,0.00,,---,0.00,0.00,VWS V14.01,2013-05-20 13:00:00,
2013-05-20 09:05:00,73.0,73.0,29.13,SSW,202,0.0,3.0,100,0.00,,---,0.00,0.00,VWS V14.01,2013-05-20 13:05:00,
2013-05-20 09:10:00,74.0,73.7,29.13,West,270,0.0,3.0,99,0.00,,---,0.00,0.00,VWS V14.01,2013-05-20 13:10:00,
2013-05-20 09:15:00,74.0,73.1,29.10,SSW,202,4.0,7.0,97,0.00,,---,0.00,0.00,VWS V14.01,2013-05-20 13:15:00,
2013-05-20 09:20:00,75.0,73.8,29.10,SSE,157,4.0,4.0,96,0.00,,---,0.00,0.00,VWS V14.01,2013-05-20 13:20:00,
2013-05-20 09:25:00,76.0,74.5,29.09,SE,135,3.0,5.0,95,0.00,,---,0.00,0.00,VWS V14.01,2013-05-20 13:25:00,
2013-05-20 09:30:00,76.0,73.8,29.09,SSW,202,4.0,6.0,93,0.00,,---,0.00,0.00,VWS V14.01,2013-05-20 13:30:00,
2013-05-20 09:35:00,76.0,73.5,29.09,ENE,67,0.0,3.0,92,0.00,,---,0.00,0.00,VWS V14.01,2013-05-20 13:35:00,
2013-05-20 09:40:00,77.0,74.5,29.09,SW,225,0.0,3.0,92,0.00,,---,0.00,0.00,VWS V14.01,2013-05-20 13:40:00,
2013-05-20 09:45:00,77.0,73.8,29.09,SSW,202,5.0,6.0,90,0.00,,---,0.00,0.00,VWS V14.01,2013-05-20 13:45:00,
2013-05-20 09:50:00,76.0,73.8,29.09,South,180,3.0,5.0,93,0.00,,---,0.00,0.00,VWS V14.01,2013-05-20 13:50:00,
2013-05-20 09:55:00,75.0,72.8,29.11,WNW,292,2.0,2.0,93,0.00,,---,0.00,0.00,VWS V14.01,2013-05-20 13:55:00,
2013-05-20 10:00:00,75.0,72.5,29.11,SSE,157,6.0,6.0,92,0.00,,---,0.00,0.00,VWS V14.01,2013-05-20 14:00:00,
2013-05-20 10:05:00,75.0,72.5,29.09,SW,225,0.0,1.0,92,0.00,,---,0.00,0.00,VWS V14.01,2013-05-20 14:05:00,
2013-05-20 10:10:00,75.0,72.2,29.09,SSW,202,3.0,5.0,91,0.00,,---,0.00,0.00,VWS V14.01,2013-05-20 14:10:00,
2013-05-20 10:15:00,76.0,73.8,29.07,SSE,157,4.0,4.0,93,0.00,,---,0.00,0.00,VWS V14.01,2013-05-20 14:15:00,
2013-05-20 10:20:00,76.0,73.8,29.07,SSW,202,1.0,7.0,93,0.00,,---,0.00,0.00,VWS V14.01,2013-05-20 14:20:00,
2013-05-20 10:25:00,76.0,73.5,29.06,ESE,112,8.0,8.0,92,0.00,,---,0.00,0.00,VWS V14.01,2013-05-20 14:25:00,
2013-05-20 10:30:00,76.0,73.5,29.06,SE,135,9.0,11.0,92,0.00,,---,0.00,0.00,VWS V14.01,2013-05-20 14:30:00,
2013-05-20 10:35:00,77.0,73.8,28.97,SSW,202,3.0,5.0,90,0.00,,---,0.00,0.00,VWS V14.01,2013-05-20 14:35:00,
2013-05-20 10:40:00,77.0,74.5,28.97,South,180,5.0,11.0,92,0.00,,---,0.00,0.00,VWS V14.01,2013-05-20 14:40:00,
2013-05-20 10:45:00,77.0,72.2,29.01,SSE,157,3.0,3.0,85,0.00,,---,0.00,0.00,VWS V14.01,2013-05-20 14:45:00,
2013-05-20 10:50:00,76.0,72.9,29.01,SSE,157,4.0,5.0,90,0.00,,---,0.00,0.00,VWS V14.01,2013-05-20 14:50:00,
2013-05-20 10:55:00,77.0,73.2,29.07,South,180,0.0,3.0,88,0.00,,---,0.00,0.00,VWS V14.01,2013-05-20 14:55:00,
2013-05-20 11:00:00,77.0,73.2,29.07,SSW,202,3.0,4.0,88,0.00,,---,0.00,0.00,VWS V14.01,2013-05-20 15:00:00,
2013-05-20 11:05:00,76.0,73.5,29.09,SSW,202,0.0,0.0,92,0.00,,---,0.00,0.00,VWS V14.01,2013-05-20 15:05:00,
2013-05-20 11:10:00,77.0,73.8,29.09,SSW,202,0.0,2.0,90,0.00,,---,0.00,0.00,VWS V14.01,2013-05-20 15:10:00,
2013-05-20 11:15:00,77.0,73.5,29.05,SSW,202,2.0,4.0,89,0.00,,---,0.00,0.00,VWS V14.01,2013-05-20 15:15:00,
2013-05-20 11:20:00,77.0,73.5,29.05,South,180,2.0,5.0,89,0.00,,---,0.00,0.00,VWS V14.01,2013-05-20 15:20:00,
2013-05-20 11:25:00,77.0,72.5,29.03,SE,135,3.0,7.0,86,0.00,,---,0.00,0.00,VWS V14.01,2013-05-20 15:25:00,
2013-05-20 11:30:00,77.0,72.8,29.03,SSW,202,2.0,8.0,87,0.00,,---,0.00,0.00,VWS V14.01,2013-05-20 15:30:00,
2013-05-20 11:35:00,77.0,72.5,29.01,SW,225,0.0,3.0,86,0.00,,---,0.00,0.00,VWS V14.01,2013-05-20 15:35:00,
2013-05-20 11:40:00,77.0,72.5,29.01,SSE,157,0.0,1.0,86,0.00,,---,0.00,0.00,VWS V14.01,2013-05-20 15:40:00,
2013-05-20 11:45:00,77.0,71.8,29.09,South,180,0.0,1.0,84,0.00,,---,0.00,0.00,VWS V14.01,2013-05-20 15:45:00,
2013-05-20 11:50:00,79.0,73.4,29.09,SSE,157,6.0,6.0,83,0.00,,---,0.00,0.00,VWS V14.01,2013-05-20 15:50:00,
2013-05-20 11:55:00,79.0,73.8,28.95,SE,135,4.0,5.0,84,0.00,,---,0.00,0.00,VWS V14.01,2013-05-20 15:55:00,
2013-05-20 12:00:00,79.0,72.7,28.97,SSE,157,10.0,10.0,81,0.00,,---,0.00,0.00,VWS V14.01,2013-05-20 16:00:00,
2013-05-20 12:05:00,79.0,72.7,28.97,South,180,3.0,6.0,81,0.00,,---,0.00,0.00,VWS V14.01,2013-05-20 16:05:00,
2013-05-20 12:11:00,79.0,71.9,28.97,WSW,247,4.0,5.0,79,0.00,,---,0.00,0.00,VWS V14.01,2013-05-20 16:11:00,
2013-05-20 12:16:00,79.0,70.8,28.97,South,180,5.0,11.0,76,0.00,,---,0.00,0.00,VWS V14.01,2013-05-20 16:16:00,
2013-05-20 12:21:00,80.0,72.9,28.95,South,180,5.0,8.0,79,0.00,,---,0.00,0.00,VWS V14.01,2013-05-20 16:21:00,
2013-05-20 12:26:00,79.0,74.1,28.95,SE,135,6.0,10.0,85,0.00,,---,0.00,0.00,VWS V14.01,2013-05-20 16:26:00,
2013-05-20 12:31:00,79.0,70.8,28.98,SSE,157,5.0,10.0,76,0.00,,---,0.00,0.00,VWS V14.01,2013-05-20 16:31:00,
2013-05-20 12:36:00,79.0,71.6,28.98,SW,225,4.0,6.0,78,0.00,,---,0.00,0.00,VWS V14.01,2013-05-20 16:36:00,
2013-05-20 12:41:00,79.0,72.3,29.05,South,180,4.0,8.0,80,0.00,,---,0.00,0.00,VWS V14.01,2013-05-20 16:41:00,
2013-05-20 12:46:00,80.0,72.9,29.05,SSE,157,5.0,11.0,79,0.00,,---,0.00,0.00,VWS V14.01,2013-05-20 16:46:00,
2013-05-20 12:51:00,80.0,72.5,29.05,SSE,157,6.0,9.0,78,0.00,,---,0.00,0.00,VWS V14.01,2013-05-20 16:51:00,
2013-05-20 12:56:00,80.0,71.8,29.05,SSE,157,6.0,7.0,76,0.00,,---,0.00,0.00,VWS V14.01,2013-05-20 16:56:00,
2013-05-20 13:01:00,80.0,72.2,29.01,South,180,0.0,8.0,77,0.00,,---,0.00,0.00,VWS V14.01,2013-05-20 17:01:00,
2013-05-20 13:06:00,80.0,71.8,29.01,SSW,202,5.0,7.0,76,0.00,,---,0.00,0.00,VWS V14.01,2013-05-20 17:06:00,
2013-05-20 13:11:00,81.0,71.9,28.97,SE,135,4.0,10.0,74,0.00,,---,0.00,0.00,VWS V14.01,2013-05-20 17:11:00,
2013-05-20 13:16:00,80.0,71.0,28.97,SSE,157,3.0,3.0,74,0.00,,---,0.00,0.00,VWS V14.01,2013-05-20 17:16:00,
2013-05-20 13:21:00,81.0,71.5,29.02,South,180,3.0,8.0,73,0.00,,---,0.00,0.00,VWS V14.01,2013-05-20 17:21:00,
2013-05-20 13:26:00,80.0,71.4,29.02,SW,225,5.0,8.0,75,0.00,,---,0.00,0.00,VWS V14.01,2013-05-20 17:26:00,
2013-05-20 13:31:00,80.0,70.6,29.02,SSW,202,4.0,7.0,73,0.00,,---,0.00,0.00,VWS V14.01,2013-05-20 17:31:00,
2013-05-20 13:36:00,80.0,70.2,29.02,SSW,202,5.0,7.0,72,0.00,,---,0.00,0.00,VWS V14.01,2013-05-20 17:36:00,
2013-05-20 13:41:00,80.0,70.2,29.01,SSE,157,6.0,8.0,72,0.00,,---,0.00,0.00,VWS V14.01,2013-05-20 17:41:00,
2013-05-20 13:46:00,81.0,72.3,29.01,SE,135,0.0,4.0,75,0.00,,---,0.00,0.00,VWS V14.01,2013-05-20 17:46:00,
2013-05-20 13:51:00,81.0,71.1,29.02,SE,135,6.0,6.0,72,0.00,,---,0.00,0.00,VWS V14.01,2013-05-20 17:51:00,
2013-05-20 13:56:00,81.0,71.5,29.02,West,270,0.0,3.0,73,0.00,,---,0.00,0.00,VWS V14.01,2013-05-20 17:56:00,
2013-05-20 14:01:00,82.0,72.9,29.03,SSE,157,5.0,6.0,74,0.00,,---,0.00,0.00,VWS V14.01,2013-05-20 18:01:00,
2013-05-20 14:06:00,81.0,71.1,29.03,SSE,157,7.0,8.0,72,0.00,,---,0.00,0.00,VWS V14.01,2013-05-20 18:06:00,
2013-05-20 14:11:00,82.0,71.7,29.02,South,180,9.0,10.0,71,0.00,,---,0.00,0.00,VWS V14.01,2013-05-20 18:11:00,
2013-05-20 14:16:00,82.0,73.3,29.02,SSE,157,3.0,6.0,75,0.00,,---,0.00,0.00,VWS V14.01,2013-05-20 18:16:00,
2013-05-20 14:21:00,81.0,71.1,29.03,SSE,157,6.0,11.0,72,0.00,,---,0.00,0.00,VWS V14.01,2013-05-20 18:21:00,
2013-05-20 14:26:00,82.0,72.1,29.03,SSE,157,6.0,6.0,72,0.00,,---,0.00,0.00,VWS V14.01,2013-05-20 18:26:00,
2013-05-20 14:31:00,82.0,70.8,29.03,SW,225,6.0,6.0,69,0.00,,---,0.00,0.00,VWS V14.01,2013-05-20 18:31:00,
2013-05-20 14:36:00,81.0,70.7,29.03,South,180,6.0,9.0,71,0.00,,---,0.00,0.00,VWS V14.01,2013-05-20 18:36:00,
2013-05-20 14:41:00,82.0,71.7,28.97,SSE,157,4.0,6.0,71,0.00,,---,0.00,0.00,VWS V14.01,2013-05-20 18:41:00,
2013-05-20 14:46:00,82.0,72.1,28.97,SE,135,6.0,10.0,72,0.00,,---,0.00,0.00,VWS V14.01,2013-05-20 18:46:00,
2013-05-20 14:51:00,82.0,70.8,29.02,SW,225,8.0,10.0,69,0.00,,---,0.00,0.00,VWS V14.01,2013-05-20 18:51:00,
2013-05-20 14:56:00,81.0,71.5,29.02,SSW,202,6.0,8.0,73,0.00,,---,0.00,0.00,VWS V14.01,2013-05-20 18:56:00,
2013-05-20 15:01:00,82.0,72.1,29.02,South,180,6.0,7.0,72,0.00,,---,0.00,0.00,VWS V14.01,2013-05-20 19:01:00,
2013-05-20 15:06:00,82.0,71.3,29.02,South,180,9.0,11.0,70,0.00,,---,0.00,0.00,VWS V14.01,2013-05-20 19:06:00,
2013-05-20 15:11:00,82.0,71.3,29.02,SSW,202,6.0,6.0,70,0.00,,---,0.00,0.00,VWS V14.01,2013-05-20 19:11:00,
2013-05-20 15:16:00,82.0,71.7,29.02,SSE,157,6.0,7.0,71,0.00,,---,0.00,0.00,VWS V14.01,2013-05-20 19:16:00,
2013-05-20 15:21:00,81.0,71.5,29.03,SSE,157,8.0,10.0,73,0.00,,---,0.00,0.00,VWS V14.01,2013-05-20 19:21:00,
2013-05-20 15:26:00,81.0,71.1,29.03,South,180,5.0,8.0,72,0.00,,---,0.00,0.00,VWS V14.01,2013-05-20 19:26:00,
2013-05-20 15:31:00,81.0,70.7,29.01,South,180,7.0,10.0,71,0.00,,---,0.00,0.00,VWS V14.01,2013-05-20 19:31:00,
2013-05-20 15:36:00,81.0,70.7,29.01,SSE,157,7.0,7.0,71,0.00,,---,0.00,0.00,VWS V14.01,2013-05-20 19:36:00,
2013-05-20 15:41:00,81.0,70.7,29.02,SSE,157,2.0,5.0,71,0.00,,---,0.00,0.00,VWS V14.01,2013-05-20 19:41:00,
2013-05-20 15:46:00,82.0,71.7,29.02,SSW,202,2.0,4.0,71,0.00,,---,0.00,0.00,VWS V14.01,2013-05-20 19:46:00,
2013-05-20 15:51:00,81.0,70.3,29.03,SSE,157,4.0,5.0,70,0.00,,---,0.00,0.00,VWS V14.01,2013-05-20 19:51:00,
2013-05-20 15:56:00,81.0,70.7,29.03,South,180,2.0,8.0,71,0.00,,---,0.00,0.00,VWS V14.01,2013-05-20 19:56:00,
2013-05-20 16:01:00,81.0,69.9,29.04,SSE,157,6.0,7.0,69,0.00,,---,0.00,0.00,VWS V14.01,2013-05-20 20:01:00,
2013-05-20 16:06:00,81.0,69.9,29.04,WNW,292,4.0,7.0,69,0.00,,---,0.00,0.00,VWS V14.01,2013-05-20 20:06:00,
2013-05-20 16:11:00,81.0,69.9,29.04,SW,225,4.0,4.0,69,0.00,,---,0.00,0.00,VWS V14.01,2013-05-20 20:11:00,
2013-05-20 16:16:00,81.0,71.1,29.04,SSW,202,6.0,6.0,72,0.00,,---,0.00,0.00,VWS V14.01,2013-05-20 20:16:00,
2013-05-20 16:21:00,82.0,71.3,29.02,SE,135,5.0,5.0,70,0.00,,---,0.00,0.00,VWS V14.01,2013-05-20 20:21:00,
2013-05-20 16:26:00,81.0,70.7,29.02,SSW,202,4.0,7.0,71,0.00,,---,0.00,0.00,VWS V14.01,2013-05-20 20:26:00,
2013-05-20 16:31:00,81.0,71.1,29.02,SSE,157,3.0,7.0,72,0.00,,---,0.00,0.00,VWS V14.01,2013-05-20 20:31:00,
2013-05-20 16:36:00,81.0,71.1,29.02,SSE,157,4.0,7.0,72,0.00,,---,0.00,0.00,VWS V14.01,2013-05-20 20:36:00,
2013-05-20 16:41:00,81.0,70.7,29.03,SSE,157,4.0,7.0,71,0.00,,---,0.00,0.00,VWS V14.01,2013-05-20 20:41:00,
2013-05-20 16:46:00,81.0,71.5,29.03,SSW,202,2.0,3.0,73,0.00,,---,0.00,0.00,VWS V14.01,2013-05-20 20:46:00,
2013-05-20 16:51:00,81.0,70.7,29.03,SSE,157,3.0,3.0,71,0.00,,---,0.00,0.00,VWS V14.01,2013-05-20 20:51:00,
2013-05-20 16:56:00,82.0,70.8,29.03,SE,135,0.0,3.0,69,0.00,,---,0.00,0.00,VWS V14.01,2013-05-20 20:56:00,
2013-05-20 17:01:00,82.0,69.5,29.03,South,180,4.0,6.0,66,0.00,,---,0.00,0.00,VWS V14.01,2013-05-20 21:01:00,
2013-05-20 17:06:00,81.0,69.0,29.03,SE,135,6.0,6.0,67,0.00,,---,0.00,0.00,VWS V14.01,2013-05-20 21:06:00,
2013-05-20 17:11:00,82.0,70.0,29.02,South,180,5.0,6.0,67,0.00,,---,0.00,0.00,VWS V14.01,2013-05-20 21:11:00,
2013-05-20 17:16:00,82.0,70.0,29.02,SSW,202,4.0,10.0,67,0.00,,---,0.00,0.00,VWS V14.01,2013-05-20 21:16:00,
2013-05-20 17:21:00,82.0,70.0,29.03,SSW,202,3.0,6.0,67,0.00,,---,0.00,0.00,VWS V14.01,2013-05-20 21:21:00,
2013-05-20 17:26:00,82.0,70.8,29.03,South,180,2.0,3.0,69,0.00,,---,0.00,0.00,VWS V14.01,2013-05-20 21:26:00,
2013-05-20 17:31:00,82.0,69.5,29.03,South,180,9.0,13.0,66,0.00,,---,0.00,0.00,VWS V14.01,2013-05-20 21:31:00,
2013-05-20 17:36:00,82.0,70.0,29.03,SSE,157,3.0,6.0,67,0.00,,---,0.00,0.00,VWS V14.01,2013-05-20 21:36:00,
2013-05-20 17:41:00,82.0,70.8,29.04,SSE,157,4.0,7.0,69,0.00,,---,0.00,0.00,VWS V14.01,2013-05-20 21:41:00,
2013-05-20 17:46:00,81.0,69.9,29.04,SSE,157,3.0,10.0,69,0.00,,---,0.00,0.00,VWS V14.01,2013-05-20 21:46:00,
2013-05-20 17:51:00,81.0,69.9,29.05,SSW,202,7.0,9.0,69,0.00,,---,0.00,0.00,VWS V14.01,2013-05-20 21:51:00,
2013-05-20 17:56:00,81.0,69.9,29.05,SSE,157,4.0,4.0,69,0.00,,---,0.00,0.00,VWS V14.01,2013-05-20 21:56:00,
2013-05-20 18:01:00,80.0,68.9,29.04,ESE,112,4.0,4.0,69,0.00,,---,0.00,0.00,VWS V14.01,2013-05-20 22:01:00,
2013-05-20 18:06:00,80.0,69.3,29.04,SSE,157,5.0,6.0,70,0.00,,---,0.00,0.00,VWS V14.01,2013-05-20 22:06:00,
2013-05-20 18:11:00,81.0,69.9,29.03,SSW,202,2.0,7.0,69,0.00,,---,0.00,0.00,VWS V14.01,2013-05-20 22:11:00,
2013-05-20 18:16:00,81.0,69.9,29.03,North,360,2.0,6.0,69,0.00,,---,0.00,0.00,VWS V14.01,2013-05-20 22:16:00,
2013-05-20 18:21:00,81.0,70.3,29.03,South,180,3.0,4.0,70,0.00,,---,0.00,0.00,VWS V14.01,2013-05-20 22:21:00,
2013-05-20 18:26:00,81.0,69.9,29.03,South,180,4.0,7.0,69,0.00,,---,0.00,0.00,VWS V14.01,2013-05-20 22:26:00,
2013-05-20 18:31:00,81.0,69.9,29.02,SW,225,8.0,8.0,69,0.00,,---,0.00,0.00,VWS V14.01,2013-05-20 22:31:00,
2013-05-20 18:36:00,81.0,69.9,29.02,South,180,7.0,8.0,69,0.00,,---,0.00,0.00,VWS V14.01,2013-05-20 22:36:00,
2013-05-20 18:41:00,82.0,71.7,29.01,SSE,157,2.0,5.0,71,0.00,,---,0.00,0.00,VWS V14.01,2013-05-20 22:41:00,
2013-05-20 18:46:00,82.0,70.0,29.01,SE,135,4.0,5.0,67,0.00,,---,0.00,0.00,VWS V14.01,2013-05-20 22:46:00,
2013-05-20 18:51:00,82.0,69.5,29.02,SSW,202,6.0,12.0,66,0.00,,---,0.00,0.00,VWS V14.01,2013-05-20 22:51:00,
2013-05-20 18:56:00,82.0,70.0,29.02,South,180,3.0,5.0,67,0.00,,---,0.00,0.00,VWS V14.01,2013-05-20 22:56:00,
2013-05-20 19:01:00,81.0,69.9,29.02,South,180,5.0,9.0,69,0.00,,---,0.00,0.00,VWS V14.01,2013-05-20 23:01:00,
2013-05-20 19:06:00,81.0,69.9,29.02,South,180,7.0,7.0,69,0.00,,---,0.00,0.00,VWS V14.01,2013-05-20 23:06:00,
2013-05-20 19:12:00,81.0,69.9,29.01,South,180,6.0,7.0,69,0.00,,---,0.00,0.00,VWS V14.01,2013-05-20 23:12:00,
2013-05-20 19:17:00,81.0,70.3,29.01,SW,225,1.0,4.0,70,0.00,,---,0.00,0.00,VWS V14.01,2013-05-20 23:17:00,
2013-05-20 19:22:00,80.0,69.8,29.03,South,180,7.0,7.0,71,0.00,,---,0.00,0.00,VWS V14.01,2013-05-20 23:22:00,
2013-05-20 19:27:00,80.0,69.8,29.03,SW,225,5.0,6.0,71,0.00,,---,0.00,0.00,VWS V14.01,2013-05-20 23:27:00,
2013-05-20 19:32:00,80.0,70.2,29.03,South,180,0.0,4.0,72,0.00,,---,0.00,0.00,VWS V14.01,2013-05-20 23:32:00,
2013-05-20 19:37:00,80.0,70.2,29.03,South,180,4.0,7.0,72,0.00,,---,0.00,0.00,VWS V14.01,2013-05-20 23:37:00,
2013-05-20 19:42:00,80.0,70.2,29.03,South,180,5.0,5.0,72,0.00,,---,0.00,0.00,VWS V14.01,2013-05-20 23:42:00,
2013-05-20 19:47:00,80.0,70.2,29.03,SSW,202,0.0,7.0,72,0.00,,---,0.00,0.00,VWS V14.01,2013-05-20 23:47:00,
2013-05-20 19:52:00,79.0,70.0,29.03,ESE,112,8.0,8.0,74,0.00,,---,0.00,0.00,VWS V14.01,2013-05-20 23:52:00,
2013-05-20 19:57:00,79.0,70.0,29.03,SSE,157,3.0,3.0,74,0.00,,---,0.00,0.00,VWS V14.01,2013-05-20 23:57:00,
2013-05-20 20:02:00,79.0,70.4,29.03,SSE,157,0.0,8.0,75,0.00,,---,0.00,0.00,VWS V14.01,2013-05-21 00:02:00,
2013-05-20 20:07:00,79.0,70.4,29.03,SSE,157,6.0,7.0,75,0.00,,---,0.00,0.00,VWS V14.01,2013-05-21 00:07:00,
2013-05-20 20:12:00,79.0,70.8,29.03,South,180,2.0,5.0,76,0.00,,---,0.00,0.00,VWS V14.01,2013-05-21 00:12:00,
2013-05-20 20:17:00,78.0,69.8,29.03,SSW,202,5.0,8.0,76,0.00,,---,0.00,0.00,VWS V14.01,2013-05-21 00:17:00,
2013-05-20 20:22:00,78.0,70.2,29.03,South,180,7.0,8.0,77,0.00,,---,0.00,0.00,VWS V14.01,2013-05-21 00:22:00,
2013-05-20 20:27:00,78.0,70.2,29.03,SSW,202,3.0,10.0,77,0.00,,---,0.00,0.00,VWS V14.01,2013-05-21 00:27:00,
2013-05-20 20:32:00,78.0,70.6,29.03,SE,135,2.0,5.0,78,0.00,,---,0.00,0.00,VWS V14.01,2013-05-21 00:32:00,
2013-05-20 20:37:00,78.0,70.6,29.03,SSE,157,5.0,7.0,78,0.00,,---,0.00,0.00,VWS V14.01,2013-05-21 00:37:00,
2013-05-20 20:42:00,78.0,71.0,29.03,South,180,7.0,10.0,79,0.00,,---,0.00,0.00,VWS V14.01,2013-05-21 00:42:00,
2013-05-20 20:47:00,78.0,71.0,29.03,SSE,157,4.0,8.0,79,0.00,,---,0.00,0.00,VWS V14.01,2013-05-21 00:47:00,
2013-05-20 20:52:00,78.0,70.6,29.02,SSE,157,5.0,10.0,78,0.00,,---,0.00,0.00,VWS V14.01,2013-05-21 00:52:00,
2013-05-20 20:57:00,78.0,71.0,29.02,South,180,3.0,5.0,79,0.00,,---,0.00,0.00,VWS V14.01,2013-05-21 00:57:00,
2013-05-20 21:02:00,78.0,71.0,29.02,SSE,157,5.0,7.0,79,0.00,,---,0.00,0.00,VWS V14.01,2013-05-21 01:02:00,
2013-05-20 21:07:00,77.0,70.0,29.02,SW,225,2.0,4.0,79,0.00,,---,0.00,0.00,VWS V14.01,2013-05-21 01:07:00,
2013-05-20 21:12:00,77.0,70.4,29.03,WNW,292,0.0,4.0,80,0.00,,---,0.00,0.00,VWS V14.01,2013-05-21 01:12:00,
2013-05-20 21:17:00,77.0,70.7,29.03,SE,135,3.0,3.0,81,0.00,,---,0.00,0.00,VWS V14.01,2013-05-21 01:17:00,
2013-05-20 21:22:00,77.0,70.7,29.02,WSW,247,1.0,7.0,81,0.00,,---,0.00,0.00,VWS V14.01,2013-05-21 01:22:00,
2013-05-20 21:27:00,77.0,70.7,29.02,SSE,157,0.0,5.0,81,0.00,,---,0.00,0.00,VWS V14.01,2013-05-21 01:27:00,
2013-05-20 21:32:00,77.0,71.1,29.03,SSW,202,0.0,0.0,82,0.00,,---,0.00,0.00,VWS V14.01,2013-05-21 01:32:00,
2013-05-20 21:37:00,76.0,70.5,29.03,SSW,202,2.0,3.0,83,0.00,,---,0.00,0.00,VWS V14.01,2013-05-21 01:37:00,
2013-05-20 21:42:00,76.0,70.5,29.04,South,180,3.0,4.0,83,0.00,,---,0.00,0.00,VWS V14.01,2013-05-21 01:42:00,
2013-05-20 21:47:00,76.0,70.5,29.04,SSE,157,0.0,2.0,83,0.00,,---,0.00,0.00,VWS V14.01,2013-05-21 01:47:00,
2013-05-20 21:52:00,76.0,70.8,29.04,SSE,157,0.0,2.0,84,0.00,,---,0.00,0.00,VWS V14.01,2013-05-21 01:52:00,
2013-05-20 21:57:00,76.0,71.2,29.04,SE,135,0.0,3.0,85,0.00,,---,0.00,0.00,VWS V14.01,2013-05-21 01:57:00,
2013-05-20 22:02:00,76.0,71.2,29.03,SE,135,0.0,3.0,85,0.00,,---,0.00,0.00,VWS V14.01,2013-05-21 02:02:00,
2013-05-20 22:07:00,76.0,71.2,29.03,SSW,202,3.0,3.0,85,0.00,,---,0.00,0.00,VWS V14.01,2013-05-21 02:07:00,
2013-05-20 22:12:00,75.0,70.5,29.04,SSE,157,2.0,3.0,86,0.00,,---,0.00,0.00,VWS V14.01,2013-05-21 02:12:00,
2013-05-20 22:17:00,75.0,70.5,29.04,South,180,3.0,6.0,86,0.00,,---,0.00,0.00,VWS V14.01,2013-05-21 02:17:00,
2013-05-20 22:22:00,75.0,70.5,29.05,SW,225,4.0,5.0,86,0.00,,---,0.00,0.00,VWS V14.01,2013-05-21 02:22:00,
2013-05-20 22:27:00,75.0,70.5,29.05,SE,135,3.0,4.0,86,0.00,,---,0.00,0.00,VWS V14.01,2013-05-21 02:27:00,
2013-05-20 22:32:00,75.0,70.5,29.06,SSW,202,3.0,3.0,86,0.00,,---,0.00,0.00,VWS V14.01,2013-05-21 02:32:00,
2013-05-20 22:37:00,75.0,70.5,29.06,SSE,157,3.0,4.0,86,0.00,,---,0.00,0.00,VWS V14.01,2013-05-21 02:37:00,
2013-05-20 22:42:00,75.0,70.5,29.06,South,180,3.0,4.0,86,0.00,,---,0.00,0.00,VWS V14.01,2013-05-21 02:42:00,
2013-05-20 22:47:00,75.0,70.5,29.06,SSE,157,0.0,6.0,86,0.00,,---,0.00,0.00,VWS V14.01,2013-05-21 02:47:00,
2013-05-20 22:52:00,75.0,70.5,29.05,SSE,157,2.0,6.0,86,0.00,,---,0.00,0.00,VWS V14.01,2013-05-21 02:52:00,
2013-05-20 22:57:00,75.0,70.5,29.05,South,180,4.0,6.0,86,0.00,,---,0.00,0.00,VWS V14.01,2013-05-21 02:57:00,
2013-05-20 23:01:00,74.0,70.6,29.04,SSW,202,3.0,8.0,89,0.00,,---,0.00,0.00,VWS V14.01,2013-05-21 03:01:00,
2013-05-20 23:02:00,75.0,70.5,29.05,SSE,157,3.0,6.0,86,0.00,,---,0.00,0.00,VWS V14.01,2013-05-21 03:02:00,
2013-05-20 23:03:00,74.0,70.9,29.04,SSE,157,3.0,4.0,90,0.00,,---,0.00,0.00,VWS V14.01,2013-05-21 03:03:00,
2013-05-20 23:04:00,74.0,70.9,29.04,South,180,5.0,6.0,90,0.00,,---,0.00,0.00,VWS V14.01,2013-05-21 03:04:00,
2013-05-20 23:05:00,74.0,70.9,29.04,SSE,157,3.0,8.0,90,0.00,,---,0.00,0.00,VWS V14.01,2013-05-21 03:05:00,
2013-05-20 23:06:00,74.0,70.9,29.04,ESE,112,2.0,6.0,90,0.00,,---,0.00,0.00,VWS V14.01,2013-05-21 03:06:00,
2013-05-20 23:07:00,75.0,70.9,29.05,SW,225,4.0,5.0,87,0.00,,---,0.00,0.00,VWS V14.01,2013-05-21 03:07:00,
2013-05-20 23:08:00,74.0,70.9,29.04,South,180,5.0,6.0,90,0.00,,---,0.00,0.00,VWS V14.01,2013-05-21 03:08:00,
2013-05-20 23:09:00,74.0,71.2,29.04,SSE,157,4.0,6.0,91,0.00,,---,0.00,0.00,VWS V14.01,2013-05-21 03:09:00,
2013-05-20 23:10:00,74.0,71.2,29.04,SSW,202,3.0,5.0,91,0.00,,---,0.00,0.00,VWS V14.01,2013-05-21 03:10:00,
2013-05-20 23:11:00,74.0,71.2,29.04,WSW,247,3.0,5.0,91,0.00,,---,0.00,0.00,VWS V14.01,2013-05-21 03:11:00,
2013-05-20 23:12:00,75.0,70.9,29.05,SSE,157,3.0,7.0,87,0.00,,---,0.00,0.00,VWS V14.01,2013-05-21 03:12:00,
2013-05-20 23:13:00,74.0,71.2,29.04,SSE,157,4.0,11.0,91,0.00,,---,0.00,0.00,VWS V14.01,2013-05-21 03:13:00,
2013-05-20 23:14:00,74.0,71.2,29.04,West,270,1.0,5.0,91,0.00,,---,0.00,0.00,VWS V14.01,2013-05-21 03:14:00,
2013-05-20 23:15:00,74.0,71.2,29.04,West,270,3.0,3.0,91,0.00,,---,0.00,0.00,VWS V14.01,2013-05-21 03:15:00,
2013-05-20 23:16:00,74.0,71.2,29.04,SW,225,4.0,11.0,91,0.00,,---,0.00,0.00,VWS V14.01,2013-05-21 03:16:00,
2013-05-20 23:17:00,75.0,70.9,29.05,South,180,0.0,5.0,87,0.00,,---,0.00,0.00,VWS V14.01,2013-05-21 03:17:00,
2013-05-20 23:18:00,75.0,71.9,29.04,SSE,157,8.0,9.0,90,0.00,,---,0.00,0.00,VWS V14.01,2013-05-21 03:18:00,
2013-05-20 23:19:00,75.0,71.9,29.04,SE,135,2.0,7.0,90,0.00,,---,0.00,0.00,VWS V14.01,2013-05-21 03:19:00,
2013-05-20 23:20:00,74.0,71.2,29.04,South,180,10.0,10.0,91,0.00,,---,0.00,0.00,VWS V14.01,2013-05-21 03:20:00,
2013-05-20 23:22:00,75.0,70.9,29.06,SSW,202,2.0,5.0,87,0.00,,---,0.00,0.00,VWS V14.01,2013-05-21 03:22:00,
2013-05-20 23:27:00,75.0,70.9,29.06,SE,135,4.0,5.0,87,0.00,,---,0.00,0.00,VWS V14.01,2013-05-21 03:27:00,
2013-05-20 23:32:00,74.0,70.2,29.05,SSE,157,3.0,4.0,88,0.00,,---,0.00,0.00,VWS V14.01,2013-05-21 03:32:00,
2013-05-20 23:37:00,75.0,71.2,29.05,SSE,157,2.0,7.0,88,0.00,,---,0.00,0.00,VWS V14.01,2013-05-21 03:37:00,
2013-05-20 23:42:00,74.0,70.6,29.05,South,180,5.0,6.0,89,0.00,,---,0.00,0.00,VWS V14.01,2013-05-21 03:42:00,
2013-05-20 23:47:00,75.0,71.5,29.05,SSE,157,3.0,3.0,89,0.00,,---,0.00,0.00,VWS V14.01,2013-05-21 03:47:00,
2013-05-20 23:52:00,74.0,70.6,29.03,South,180,5.0,5.0,89,0.00,,---,0.00,0.00,VWS V14.01,2013-05-21 03:52:00,
2013-05-20 23:57:00,74.0,70.9,29.03,SW,225,2.0,7.0,90,0.00,,---,0.00,0.00,VWS V14.01,2013-05-21 03:57:00,